QPF
0.04 0.02 0.04 0.08 0.09 0.08 0.07 0.06 0.04 0.04 0.04 0.04 0.05 0.05 0.05 0.05 0.10 0.16 0.18 0.18 0.17 0.19 0.18 0.16 0.14 0.12 0.10 0.10 0.08 0.06 0.05 0.06 0.05 0.05 0.04 0.04 0.02 0.03 0.03 0.05 0.07 0.05 0.03
0.01 0.01 0.03 0.05 0.06 0.07 0.06 0.05 0.04 0.03 0.03 0.04 0.04 0.05 0.06 0.05 0.07 0.09 0.11 0.11 0.12 0.14 0.13 0.12 0.09 0.07 0.06 0.07 0.06 0.05 0.04 0.05 0.06 0.06 0.07 0.06 0.03 0.03 0.07 0.09 0.10 0.04 0.03
0.01 0.00 0.01 0.03 0.04 0.05 0.05 0.05 0.04 0.03 0.03 0.04 0.05 0.05 0.05 0.06 0.07 0.07 0.08 0.08 0.08 0.09 0.08 0.07 0.06 0.05 0.04 0.04 0.04 0.03 0.03 0.06 0.09 0.11 0.11 0.05 0.03 0.03 0.06 0.05 0.04 0.03 0.03
0.02 0.01 0.01 0.01 0.02 0.04 0.05 0.06 0.05 0.04 0.04 0.05 0.04 0.03 0.04 0.04 0.05 0.06 0.07 0.07 0.08 0.06 0.05 0.06 0.05 0.04 0.04 0.03 0.03 0.03 0.03 0.07 0.11 0.15 0.10 0.06 0.05 0.04 0.04 0.03 0.02 0.03 0.03
0.01 0.01 0.01 0.01 0.02 0.02 0.04 0.06 0.06 0.05 0.05 0.05 0.03 0.03 0.04 0.03 0.03 0.05 0.08 0.07 0.06 0.06 0.05 0.05 0.04 0.04 0.04 0.04 0.03 0.03 0.04 0.07 0.11 0.10 0.07 0.08 0.05 0.06 0.04 0.02 0.02 0.03 0.02
0.03 0.01 0.00 0.01 0.02 0.02 0.02 0.06 0.06 0.03 0.04 0.04 0.03 0.02 0.03 0.02 0.02 0.03 0.06 0.05 0.05 0.06 0.05 0.04 0.03 0.03 0.02 0.02 0.02 0.03 0.04 0.08 0.09 0.05 0.07 0.05 0.04 0.08 0.05 0.03 0.03 0.03 0.02
0.03 0.01 0.00 0.01 0.01 0.01 0.02 0.04 0.05 0.03 0.04 0.03 0.02 0.02 0.02 0.02 0.02 0.03 0.04 0.03 0.03 0.04 0.04 0.04 0.03 0.03 0.02 0.02 0.01 0.02 0.04 0.07 0.07 0.06 0.08 0.05 0.04 0.07 0.03 0.02 0.03 0.02 0.02
0.01 0.00 0.00 0.00 0.01 0.01 0.01 0.03 0.03 0.03 0.03 0.02 0.02 0.01 0.02 0.02 0.02 0.02 0.03 0.03 0.02 0.02 0.03 0.04 0.04 0.03 0.02 0.01 0.01 0.01 0.03 0.04 0.04 0.04 0.05 0.02 0.04 0.04 0.02 0.02 0.02 0.02 0.02
0.00 0.00 0.01 0.01 0.00 0.00 0.01 0.01 0.01 0.02 0.02 0.02 0.01 0.01 0.01 0.01 0.01 0.01 0.02 0.03 0.02 0.01 0.01 0.03 0.02 0.01 0.01 0.01 0.00 0.00 0.01 0.03 0.03 0.02 0.01 0.03 0.03 0.02 0.02 0.02 0.01 0.02 0.03
0.01 0.01 0.01 0.02 0.01 0.01 0.01 0.00 0.01 0.01 0.01 0.02 0.01 0.01 0.01 0.03 0.02 0.01 0.01 0.02 0.02 0.02 0.01 0.02 0.02 0.02 0.01 0.00 0.00 0.00 0.01 0.02 0.02 0.02 0.02 0.02 0.02 0.02 0.02 0.01 0.03 0.04 0.02
0.01 0.01 0.01 0.01 0.01 0.01 0.00 0.00 0.01 0.02 0.02 0.05 0.03 0.02 0.07 0.11 0.06 0.06 0.02 0.01 0.01 0.01 0.02 0.02 0.01 0.01 0.01 0.01 0.00 0.00 0.02 0.01 0.01 0.02 0.02 0.02 0.02 0.01 0.01 0.01 0.02 0.03 0.02
0.01 0.01 0.01 0.01 0.02 0.01 0.01 0.02 0.06 0.04 0.04 0.07 0.07 0.07 0.09 0.09 0.10 0.06 0.03 0.01 0.01 0.02 0.02 0.02 0.03 0.04 0.03 0.04 0.01 0.01 0.02 0.02 0.02 0.02 0.02 0.02 0.03 0.02 0.02 0.01 0.01 0.01 0.01
0.01 0.00 0.00 0.01 0.02 0.02 0.02 0.03 0.06 0.06 0.07 0.07 0.05 0.06 0.06 0.06 0.06 0.05 0.06 0.04 0.04 0.05 0.05 0.04 0.04 0.07 0.06 0.05 0.02 0.02 0.02 0.02 0.01 0.01 0.01 0.02 0.02 0.03 0.01 0.01 0.01 0.01 0.01
0.00 0.00 0.00 0.00 0.01 0.02 0.02 0.03 0.03 0.05 0.07 0.07 0.07 0.07 0.06 0.06 0.05 0.05 0.07 0.08 0.06 0.08 0.10 0.08 0.06 0.04 0.03 0.02 0.05 0.06 0.03 0.01 0.01 0.02 0.01 0.01 0.01 0.01 0.01 0.01 0.01 0.01 0.01
0.00 0.00 0.01 0.00 0.01 0.01 0.02 0.04 0.03 0.04 0.06 0.06 0.06 0.05 0.05 0.05 0.04 0.05 0.05 0.06 0.05 0.06 0.06 0.06 0.04 0.04 0.04 0.03 0.05 0.05 0.02 0.01 0.03 0.05 0.03 0.02 0.01 0.01 0.01 0.01 0.01 0.01 0.01
0.01 0.01 0.00 0.01 0.01 0.01 0.02 0.03 0.03 0.02 0.03 0.05 0.05 0.04 0.04 0.05 0.04 0.04 0.04 0.04 0.04 0.06 0.04 0.04 0.03 0.04 0.07 0.03 0.02 0.02 0.02 0.02 0.03 0.02 0.03 0.03 0.01 0.00 0.00 0.01 0.01 0.01 0.01
0.01 0.01 0.01 0.02 0.01 0.02 0.02 0.02 0.02 0.01 0.01 0.03 0.03 0.03 0.04 0.05 0.06 0.05 0.04 0.04 0.04 0.04 0.04 0.04 0.03 0.03 0.04 0.03 0.02 0.02 0.02 0.03 0.03 0.04 0.03 0.03 0.02 0.02 0.01 0.01 0.01 0.01 0.01
0.01 0.02 0.01 0.01 0.01 0.02 0.03 0.04 0.03 0.02 0.01 0.02 0.02 0.03 0.04 0.05 0.05 0.06 0.06 0.07 0.06 0.05 0.06 0.06 0.04 0.03 0.04 0.03 0.03 0.04 0.02 0.03 0.04 0.04 0.04 0.04 0.03 0.03 0.02 0.01 0.01 0.01 0.01
0.02 0.02 0.02 0.02 0.02 0.03 0.06 0.05 0.05 0.04 0.03 0.04 0.05 0.05 0.04 0.04 0.04 0.06 0.07 0.09 0.08 0.07 0.06 0.05 0.06 0.06 0.07 0.06 0.02 0.04 0.03 0.05 0.05 0.04 0.03 0.03 0.03 0.03 0.04 0.03 0.01 0.02 0.02
0.02 0.01 0.01 0.03 0.04 0.05 0.07 0.08 0.07 0.05 0.05 0.05 0.06 0.07 0.07 0.06 0.05 0.05 0.06 0.08 0.08 0.08 0.09 0.08 0.10 0.11 0.09 0.07 0.06 0.08 0.07 0.04 0.05 0.04 0.04 0.04 0.04 0.04 0.04 0.05 0.06 0.06 0.05
0.01 0.01 0.02 0.05 0.06 0.07 0.07 0.08 0.08 0.07 0.06 0.06 0.06 0.04 0.05 0.04 0.04 0.05 0.06 0.09 0.09 0.08 0.07 0.07 0.08 0.11 0.11 0.09 0.13 0.13 0.09 0.08 0.10 0.04 0.04 0.04 0.06 0.06 0.05 0.05 0.08 0.11 0.12
0.01 0.01 0.03 0.05 0.05 0.05 0.06 0.07 0.07 0.06 0.06 0.05 0.05 0.05 0.03 0.03 0.04 0.04 0.08 0.10 0.09 0.10 0.09 0.09 0.12 0.11 0.10 0.10 0.15 0.17 0.15 0.13 0.10 0.06 0.05 0.06 0.07 0.07 0.07 0.06 0.08 0.12 0.13
0.00 0.01 0.02 0.04 0.05 0.05 0.06 0.06 0.06 0.07 0.07 0.08 0.09 0.08 0.04 0.02 0.04 0.05 0.06 0.08 0.10 0.09 0.13 0.12 0.13 0.13 0.12 0.13 0.14 0.18 0.20 0.20 0.15 0.11 0.08 0.07 0.07 0.09 0.09 0.08 0.08 0.09 0.14
0.00 0.00 0.02 0.03 0.05 0.05 0.06 0.06 0.06 0.07 0.08 0.08 0.08 0.07 0.07 0.04 0.02 0.03 0.03 0.05 0.07 0.08 0.13 0.10 0.13 0.13 0.14 0.15 0.16 0.16 0.16 0.20 0.20 0.18 0.14 0.11 0.12 0.14 0.15 0.13 0.12 0.11 0.10
0.00 0.00 0.01 0.03 0.04 0.04 0.04 0.05 0.04 0.05 0.06 0.07 0.08 0.08 0.08 0.07 0.04 0.02 0.04 0.06 0.06 0.08 0.11 0.11 0.13 0.12 0.14 0.15 0.17 0.17 0.19 0.22 0.19 0.20 0.20 0.18 0.16 0.14 0.13 0.10 0.09 0.11 0.11
0.00 0.00 0.01 0.02 0.03 0.04 0.04 0.05 0.04 0.07 0.09 0.11 0.10 0.10 0.08 0.08 0.07 0.05 0.05 0.08 0.08 0.11 0.12 0.14 0.13 0.13 0.15 0.17 0.17 0.16 0.19 0.19 0.19 0.19 0.18 0.18 0.18 0.16 0.12 0.10 0.09 0.09 0.10
MSLP
1011.40 1011.49 1011.69 1011.99 1012.31 1012.60 1012.79 1012.84 1012.77 1012.60 1012.40 1012.22 1012.11 1012.10 1012.17 1012.31 1012.47 1012.62 1012.72 1012.77 1012.78 1012.78 1012.80 1012.84 1012.92 1013.03 1013.17 1013.31 1013.44 1013.57 1013.69 1013.81 1013.94 1014.10 1014.29 1014.49 1014.71 1014.93 1015.14 1015.35 1015.57 1015.79 1016.02
1011.46 1011.66 1011.98 1012.35 1012.72 1013.01 1013.16 1013.16 1013.02 1012.79 1012.54 1012.36 1012.27 1012.31 1012.45 1012.65 1012.88 1013.06 1013.19 1013.25 1013.27 1013.27 1013.28 1013.33 1013.42 1013.54 1013.68 1013.82 1013.94 1014.04 1014.14 1014.24 1014.37 1014.54 1014.75 1014.99 1015.25 1015.50 1015.74 1015.96 1016.17 1016.36 1016.57
1011.49 1011.79 1012.20 1012.66 1013.07 1013.38 1013.52 1013.49 1013.31 1013.05 1012.79 1012.60 1012.54 1012.60 1012.78 1013.02 1013.26 1013.47 1013.60 1013.66 1013.67 1013.67 1013.69 1013.75 1013.85 1013.99 1014.12 1014.25 1014.35 1014.42 1014.49 1014.59 1014.72 1014.91 1015.16 1015.45 1015.75 1016.04 1016.31 1016.54 1016.73 1016.91 1017.09
1011.44 1011.84 1012.34 1012.87 1013.34 1013.69 1013.85 1013.83 1013.65 1013.40 1013.15 1012.98 1012.94 1013.02 1013.20 1013.44 1013.67 1013.85 1013.96 1014.00 1014.01 1014.01 1014.05 1014.12 1014.24 1014.37 1014.50 1014.60 1014.67 1014.72 1014.77 1014.85 1015.00 1015.22 1015.52 1015.86 1016.21 1016.54 1016.83 1017.06 1017.25 1017.41 1017.57
1011.32 1011.80 1012.37 1012.98 1013.52 1013.93 1014.14 1014.17 1014.04 1013.83 1013.62 1013.49 1013.46 1013.54 1013.71 1013.92 1014.10 1014.24 1014.31 1014.33 1014.32 1014.33 1014.38 1014.47 1014.60 1014.73 1014.84 1014.92 1014.95 1014.96 1014.99 1015.06 1015.23 1015.49 1015.84 1016.23 1016.63 1016.99 1017.30 1017.53 1017.70 1017.84 1017.98
1011.16 1011.68 1012.32 1013.00 1013.61 1014.09 1014.38 1014.48 1014.43 1014.30 1014.15 1014.05 1014.05 1014.13 1014.28 1014.44 1014.57 1014.65 1014.67 1014.66 1014.65 1014.66 1014.72 1014.83 1014.96 1015.09 1015.18 1015.21 1015.20 1015.17 1015.17 1015.25 1015.43 1015.73 1016.12 1016.57 1017.01 1017.40 1017.72 1017.94 1018.09 1018.21 1018.33
1011.00 1011.55 1012.23 1012.95 1013.62 1014.16 1014.53 1014.72 1014.76 1014.71 1014.64 1014.60 1014.62 1014.71 1014.83 1014.95 1015.04 1015.07 1015.05 1015.02 1015.00 1015.02 1015.09 1015.21 1015.34 1015.45 1015.51 1015.50 1015.44 1015.38 1015.35 1015.43 1015.63 1015.96 1016.40 1016.89 1017.36 1017.77 1018.09 1018.29 1018.42 1018.51 1018.61
1010.91 1011.45 1012.13 1012.87 1013.58 1014.17 1014.59 1014.85 1014.97 1015.00 1015.00 1015.02 1015.09 1015.19 1015.31 1015.40 1015.45 1015.45 1015.42 1015.37 1015.36 1015.39 1015.48 1015.60 1015.73 1015.81 1015.83 1015.78 1015.68 1015.58 1015.53 1015.60 1015.82 1016.19 1016.66 1017.19 1017.69 1018.11 1018.41 1018.60 1018.70 1018.76 1018.84
1010.91 1011.43 1012.09 1012.81 1013.51 1014.10 1014.55 1014.85 1015.02 1015.11 1015.18 1015.26 1015.37 1015.50 1015.63 1015.72 1015.77 1015.77 1015.73 1015.69 1015.69 1015.73 1015.83 1015.96 1016.07 1016.13 1016.12 1016.03 1015.89 1015.76 1015.70 1015.78 1016.01 1016.40 1016.91 1017.46 1017.98 1018.41 1018.70 1018.87 1018.94 1018.97 1019.03
1011.02 1011.50 1012.11 1012.79 1013.44 1014.00 1014.44 1014.73 1014.92 1015.05 1015.16 1015.29 1015.44 1015.61 1015.77 1015.89 1015.95 1015.97 1015.95 1015.93 1015.94 1016.00 1016.10 1016.23 1016.33 1016.37 1016.33 1016.22 1016.06 1015.91 1015.85 1015.93 1016.19 1016.60 1017.13 1017.70 1018.24 1018.67 1018.95 1019.11 1019.16 1019.17 1019.20
1011.24 1011.67 1012.22 1012.83 1013.41 1013.90 1014.28 1014.54 1014.71 1014.84 1014.97 1015.13 1015.33 1015.54 1015.74 1015.90 1016.00 1016.04 1016.05 1016.06 1016.09 1016.15 1016.26 1016.38 1016.47 1016.50 1016.45 1016.32 1016.16 1016.02 1015.97 1016.07 1016.33 1016.77 1017.31 1017.90 1018.44 1018.88 1019.17 1019.32 1019.36 1019.36 1019.38
1011.53 1011.92 1012.40 1012.92 1013.41 1013.82 1014.11 1014.32 1014.45 1014.57 1014.70 1014.88 1015.11 1015.35 1015.59 1015.79 1015.93 1016.01 1016.05 1016.07 1016.11 1016.19 1016.29 1016.40 1016.48 1016.51 1016.46 1016.34 1016.19 1016.08 1016.05 1016.16 1016.44 1016.89 1017.44 1018.03 1018.58 1019.03 1019.34 1019.50 1019.56 1019.56 1019.57
1011.85 1012.20 1012.62 1013.06 1013.46 1013.78 1013.99 1014.13 1014.22 1014.31 1014.43 1014.61 1014.85 1015.13 1015.39 1015.63 1015.80 1015.91 1015.96 1016.00 1016.04 1016.11 1016.20 1016.30 1016.38 1016.41 1016.38 1016.29 1016.17 1016.09 1016.09 1016.22 1016.51 1016.95 1017.49 1018.08 1018.64 1019.10 1019.44 1019.63 1019.72 1019.75 1019.77
1012.15 1012.47 1012.85 1013.22 1013.54 1013.79 1013.94 1014.02 1014.07 1014.13 1014.24 1014.42 1014.66 1014.94 1015.22 1015.47 1015.65 1015.77 1015.84 1015.88 1015.91 1015.96 1016.04 1016.13 1016.21 1016.25 1016.25 1016.19 1016.13 1016.08 1016.10 1016.25 1016.53 1016.95 1017.47 1018.04 1018.60 1019.08 1019.44 1019.69 1019.82 1019.89 1019.94
1012.40 1012.70 1013.04 1013.36 1013.64 1013.84 1013.95 1014.00 1014.03 1014.07 1014.17 1014.33 1014.56 1014.83 1015.10 1015.34 1015.53 1015.64 1015.71 1015.73 1015.76 1015.79 1015.85 1015.93 1016.02 1016.08 1016.11 1016.10 1016.08 1016.07 1016.12 1016.26 1016.52 1016.90 1017.38 1017.91 1018.45 1018.93 1019.33 1019.62 1019.82 1019.95 1020.04
1012.56 1012.85 1013.16 1013.46 1013.72 1013.90 1014.01 1014.07 1014.10 1014.14 1014.23 1014.37 1014.57 1014.81 1015.05 1015.26 1015.43 1015.53 1015.58 1015.60 1015.61 1015.63 1015.68 1015.76 1015.86 1015.94 1016.01 1016.05 1016.07 1016.09 1016.15 1016.28 1016.50 1016.82 1017.23 1017.70 1018.19 1018.65 1019.07 1019.41 1019.67 1019.86 1020.01
1012.66 1012.93 1013.22 1013.51 1013.77 1013.97 1014.10 1014.19 1014.24 1014.30 1014.37 1014.49 1014.65 1014.84 1015.03 1015.20 1015.34 1015.42 1015.46 1015.47 1015.48 1015.50 1015.56 1015.64 1015.75 1015.86 1015.97 1016.05 1016.11 1016.16 1016.22 1016.32 1016.48 1016.72 1017.04 1017.42 1017.84 1018.27 1018.68 1019.05 1019.36 1019.61 1019.81
1012.70 1012.94 1013.22 1013.51 1013.77 1014.01 1014.19 1014.32 1014.41 1014.48 1014.55 1014.63 1014.74 1014.87 1015.00 1015.12 1015.22 1015.29 1015.32 1015.34 1015.36 1015.40 1015.47 1015.57 1015.71 1015.85 1015.99 1016.12 1016.21 1016.28 1016.34 1016.41 1016.51 1016.66 1016.87 1017.14 1017.47 1017.83 1018.20 1018.56 1018.90 1019.19 1019.45
1012.70 1012.93 1013.18 1013.46 1013.75 1014.02 1014.25 1014.43 1014.56 1014.64 1014.70 1014.74 1014.79 1014.85 1014.91 1014.98 1015.05 1015.11 1015.15 1015.20 1015.25 1015.31 1015.41 1015.55 1015.71 1015.89 1016.07 1016.23 1016.36 1016.46 1016.52 1016.56 1016.60 1016.66 1016.75 1016.90 1017.11 1017.37 1017.68 1018.00 1018.34 1018.65 1018.94
1012.70 1012.90 1013.13 1013.40 1013.70 1014.01 1014.28 1014.51 1014.66 1014.76 1014.79 1014.79 1014.77 1014.75 1014.75 1014.77 1014.81 1014.87 1014.94 1015.02 1015.11 1015.22 1015.36 1015.53 1015.72 1015.94 1016.16 1016.36 1016.54 1016.66 1016.74 1016.77 1016.77 1016.75 1016.74 1016.77 1016.85 1016.99 1017.20 1017.46 1017.76 1018.06 1018.37
1012.71 1012.88 1013.09 1013.35 1013.66 1013.98 1014.29 1014.55 1014.73 1014.83 1014.84 1014.78 1014.70 1014.61 1014.54 1014.51 1014.53 1014.59 1014.69 1014.81 1014.95 1015.11 1015.29 1015.49 1015.72 1015.97 1016.23 1016.48 1016.70 1016.88 1016.99 1017.03 1017.01 1016.94 1016.85 1016.77 1016.73 1016.75 1016.85 1017.01 1017.25 1017.52 1017.82
1012.73 1012.88 1013.06 1013.32 1013.63 1013.97 1014.30 1014.58 1014.78 1014.86 1014.85 1014.74 1014.59 1014.44 1014.32 1014.25 1014.25 1014.31 1014.43 1014.59 1014.77 1014.97 1015.18 1015.41 1015.66 1015.93 1016.23 1016.53 1016.81 1017.05 1017.22 1017.31 1017.30 1017.22 1017.08 1016.92 1016.78 1016.69 1016.67 1016.74 1016.90 1017.12 1017.39
1012.74 1012.88 1013.06 1013.30 1013.61 1013.96 1014.31 1014.60 1014.81 1014.89 1014.85 1014.71 1014.52 1014.31 1014.14 1014.03 1014.02 1014.08 1014.21 1014.39 1014.59 1014.81 1015.03 1015.26 1015.52 1015.81 1016.13 1016.48 1016.82 1017.13 1017.38 1017.54 1017.59 1017.53 1017.39 1017.19 1016.99 1016.81 1016.70 1016.68 1016.76 1016.93 1017.17
1012.73 1012.88 1013.06 1013.30 1013.61 1013.96 1014.32 1014.63 1014.85 1014.93 1014.88 1014.72 1014.50 1014.26 1014.05 1013.92 1013.88 1013.93 1014.06 1014.23 1014.43 1014.63 1014.84 1015.05 1015.29 1015.58 1015.91 1016.29 1016.69 1017.07 1017.41 1017.66 1017.79 1017.80 1017.70 1017.51 1017.28 1017.07 1016.90 1016.83 1016.85 1016.98 1017.19
1012.70 1012.86 1013.05 1013.29 1013.60 1013.96 1014.33 1014.65 1014.89 1014.99 1014.95 1014.79 1014.56 1014.30 1014.07 1013.92 1013.86 1013.89 1013.99 1014.14 1014.30 1014.46 1014.62 1014.79 1014.99 1015.24 1015.56 1015.96 1016.39 1016.85 1017.27 1017.61 1017.84 1017.94 1017.91 1017.77 1017.58 1017.38 1017.21 1017.12 1017.12 1017.24 1017.44
1012.63 1012.82 1013.01 1013.26 1013.57 1013.94 1014.32 1014.66 1014.92 1015.05 1015.03 1014.90 1014.68 1014.43 1014.20 1014.03 1013.95 1013.95 1014.01 1014.11 1014.21 1014.31 1014.40 1014.49 1014.63 1014.83 1015.12 1015.50 1015.95 1016.45 1016.93 1017.36 1017.69 1017.88 1017.95 1017.90 1017.78 1017.64 1017.52 1017.47 1017.51 1017.64 1017.85
Thickness
5785 5781 5777 5776 5775 5774 5774 5773 5772 5772 5771 5770 5770 5769 5769 5768 5767 5766 5765 5765 5764 5763 5763 5762 5761 5760 5759 5759 5758 5757 5757 5756 5755 5753 5752 5750 5749 5748 5748 5747 5745 5743 5741
5788 5781 5777 5775 5774 5773 5772 5771 5770 5770 5769 5768 5768 5767 5767 5766 5765 5764 5764 5763 5762 5762 5761 5760 5759 5759 5758 5757 5756 5756 5755 5754 5753 5752 5751 5749 5747 5746 5746 5745 5744 5741 5740
5789 5782 5777 5775 5773 5772 5771 5770 5769 5768 5768 5767 5766 5766 5765 5764 5763 5762 5762 5761 5760 5760 5759 5758 5757 5756 5756 5755 5755 5755 5754 5753 5752 5751 5750 5748 5746 5744 5744 5743 5741 5739 5738
5790 5782 5777 5774 5772 5771 5770 5768 5767 5767 5766 5765 5765 5764 5763 5763 5762 5761 5760 5759 5759 5758 5758 5756 5756 5755 5755 5754 5754 5754 5753 5753 5752 5752 5750 5748 5745 5743 5742 5741 5739 5738 5736
5788 5780 5775 5773 5771 5770 5768 5767 5766 5766 5765 5764 5763 5763 5762 5762 5761 5760 5759 5758 5758 5757 5756 5755 5754 5754 5754 5753 5753 5753 5753 5753 5752 5752 5750 5747 5744 5741 5740 5739 5738 5736 5735
5788 5781 5775 5772 5770 5769 5767 5766 5765 5765 5764 5763 5762 5761 5761 5761 5760 5759 5758 5757 5757 5756 5755 5754 5753 5753 5753 5753 5753 5753 5753 5753 5753 5753 5750 5746 5742 5740 5739 5738 5736 5735 5734
5790 5782 5776 5772 5770 5769 5767 5766 5765 5764 5763 5762 5761 5760 5760 5759 5759 5758 5757 5756 5756 5755 5754 5753 5753 5752 5752 5753 5753 5754 5754 5755 5755 5753 5749 5745 5741 5740 5738 5737 5735 5734 5733
5792 5783 5776 5772 5770 5769 5767 5765 5764 5763 5762 5761 5760 5759 5759 5758 5758 5757 5756 5755 5755 5754 5753 5753 5752 5752 5752 5753 5754 5754 5754 5755 5756 5753 5748 5744 5741 5739 5738 5736 5735 5734 5732
5795 5787 5780 5775 5771 5769 5767 5766 5764 5763 5762 5761 5760 5759 5759 5758 5757 5757 5756 5755 5754 5754 5753 5753 5752 5752 5752 5753 5754 5755 5755 5756 5756 5753 5749 5743 5741 5739 5738 5736 5735 5733 5732
5797 5792 5785 5781 5775 5772 5768 5766 5765 5764 5762 5762 5761 5760 5759 5758 5758 5757 5756 5755 5754 5754 5753 5753 5752 5752 5753 5753 5754 5755 5756 5757 5757 5754 5748 5743 5741 5739 5738 5736 5735 5733 5732
5794 5793 5790 5786 5780 5777 5773 5769 5766 5765 5764 5763 5762 5761 5760 5760 5760 5758 5757 5756 5755 5755 5754 5753 5753 5753 5754 5754 5755 5756 5757 5758 5757 5754 5748 5744 5742 5740 5738 5736 5735 5733 5732
5790 5792 5791 5788 5783 5781 5778 5772 5770 5769 5766 5765 5765 5763 5762 5762 5762 5760 5757 5756 5756 5756 5755 5754 5754 5754 5755 5756 5757 5757 5758 5759 5757 5753 5748 5745 5742 5740 5738 5737 5735 5734 5732
5791 5792 5790 5786 5783 5782 5779 5776 5773 5771 5768 5767 5766 5765 5764 5764 5763 5761 5759 5757 5757 5757 5757 5756 5756 5757 5758 5758 5759 5759 5760 5760 5758 5753 5747 5745 5743 5741 5739 5737 5736 5734 5732
5792 5791 5790 5786 5783 5780 5778 5777 5776 5773 5771 5769 5767 5766 5765 5765 5764 5763 5762 5762 5761 5761 5760 5759 5760 5760 5760 5761 5761 5761 5761 5761 5759 5753 5748 5746 5745 5743 5740 5738 5737 5735 5733
5791 5790 5788 5786 5781 5779 5777 5777 5777 5775 5773 5770 5768 5767 5766 5766 5765 5764 5763 5763 5763 5763 5763 5762 5762 5762 5762 5762 5762 5762 5762 5761 5759 5754 5750 5747 5746 5744 5742 5739 5737 5735 5734
5792 5790 5789 5786 5782 5779 5777 5776 5776 5775 5773 5771 5769 5767 5766 5765 5765 5764 5763 5764 5764 5764 5764 5764 5764 5763 5762 5763 5763 5763 5762 5761 5759 5756 5752 5748 5747 5745 5743 5741 5739 5736 5734
5793 5792 5789 5786 5783 5780 5778 5777 5777 5776 5774 5772 5769 5767 5766 5765 5764 5764 5764 5764 5765 5765 5765 5765 5765 5765 5764 5764 5764 5764 5763 5761 5759 5757 5753 5750 5748 5745 5743 5742 5740 5737 5735
5798 5793 5790 5790 5784 5780 5779 5778 5778 5777 5775 5773 5771 5768 5766 5765 5764 5764 5764 5765 5765 5766 5765 5765 5764 5764 5763 5763 5763 5763 5763 5761 5760 5758 5756 5753 5750 5748 5745 5743 5741 5738 5736
5800 5795 5790 5788 5785 5782 5780 5779 5778 5777 5775 5773 5771 5769 5768 5767 5766 5765 5765 5765 5765 5766 5766 5765 5764 5763 5761 5761 5762 5762 5762 5761 5761 5760 5758 5756 5753 5751 5748 5744 5741 5739 5736
5802 5796 5792 5788 5786 5783 5781 5779 5777 5776 5775 5773 5772 5770 5769 5768 5767 5766 5766 5766 5766 5766 5765 5764 5763 5762 5760 5760 5761 5760 5760 5761 5761 5761 5759 5758 5755 5753 5749 5746 5742 5739 5736
5802 5797 5792 5788 5785 5783 5780 5777 5774 5773 5774 5774 5773 5771 5770 5769 5768 5767 5767 5767 5766 5765 5764 5764 5762 5760 5758 5760 5756 5753 5756 5760 5760 5760 5759 5758 5756 5754 5751 5747 5743 5740 5737
5802 5797 5793 5789 5786 5783 5781 5779 5777 5776 5775 5774 5773 5772 5771 5770 5769 5769 5767 5766 5766 5764 5763 5762 5761 5757 5757 5759 5753 5747 5743 5747 5754 5759 5758 5756 5755 5753 5750 5748 5745 5741 5738
5804 5799 5797 5792 5789 5786 5783 5781 5779 5776 5774 5773 5771 5770 5771 5770 5769 5769 5768 5766 5765 5764 5761 5761 5759 5756 5753 5756 5756 5748 5740 5737 5743 5751 5754 5754 5752 5749 5747 5745 5743 5740 5737
5808 5805 5799 5794 5790 5787 5784 5780 5776 5772 5769 5770 5770 5770 5771 5771 5770 5769 5768 5766 5765 5763 5761 5760 5760 5758 5755 5752 5753 5754 5751 5747 5739 5737 5744 5748 5748 5745 5744 5743 5740 5738 5735
5814 5808 5802 5796 5790 5787 5784 5781 5777 5774 5773 5772 5772 5770 5770 5770 5769 5768 5767 5765 5764 5762 5761 5760 5759 5757 5755 5752 5750 5749 5748 5747 5745 5737 5732 5736 5739 5740 5740 5739 5737 5735 5732
5816 5810 5804 5796 5790 5788 5784 5782 5778 5774 5772 5770 5769 5768 5768 5768 5768 5767 5766 5764 5763 5761 5760 5759 5758 5756 5754 5753 5751 5749 5745 5742 5741 5738 5733 5731 5731 5733 5735 5735 5733 5731 5729